CZ-6A DEB, 60714

Orbit data source: Space-Track

CZ-6A DEB, 60714 is space debris in LEO originally from a launch on Tue, 06 Aug 2024 UTC launched from the Taiyaun Space Center, China (TSC). Debris objects in space refer to the collection of defunct objects orbiting the Earth. Examples of debris include non-operational satellites, rocket bodies, and fragments generated from explosions, collisions, or faulty payload assembly.

Loading next visibility...
Identifier
60714, 2024-140DT
Orbit
LEO
Country
Flag of CNCN / PRC
Related business
Manufacturer
SAST
Mission
Spacecraft
Bus & Motor
Unknown
Mass
Unknown
Launch date (UTC)
2024-08-06 (2 years ago)
Launch vehicle
Unknown
Launch site
Taiyaun Space Center, China (TSC)
Object type
Payload
Rocket body
Debris
Shape & HBR
Unknown shape, 0.1 m
Radar Cross Section
Medium (>0.1 m² and <1 m²)

Expand to show TLE details & history
Last TLE update: 13 hours ago

TLE from 13 hours ago
0 CZ-6A DEB
1 60714U 24140DT  26171.29948647  .00000621  00000-0  14237-3 0  9994
2 60714  89.0422 273.8665 0104615 279.0691  79.8690 14.51071880 98149
Epoch: 2026-06-20T07:11Z
TLE epoch observation values (Epoch: 2026-06-20T07:11:15.631Z)
Latitude
-0.00001°
Longitude
-102.46473°
Altitude
712.934 km
Speed
7.506 km/s
True Right ascension
18h 15m 27s
True Declination
0° 00' 00"
Sunlit
Object was in full shadow at epoch
Visualization orbit readout
Latitude
Unknown
Longitude
Unknown
Altitude
Unknown
Speed
Unknown
Apparent Right ascension
Unknown
Apparent Declination
Unknown
Sunlit
N/A
Visualization observer readout
Local Sidereal Time
07:13:14
Azimuth
Unknown
Elevation
Unknown
Doppler factor
Unknown
Orbital elements
Apogee altitude
793.303 km
Perigee altitude
644.809 km
Semi-major axis
7,097.193 km
Eccentricity
0.01046
Inclination
89.0422°
RAAN
273.8665°
Arg. of periapsis
279.0691°
True anomaly
81.05174°
Mean anomaly
79.869°
Eccentric anomaly
80.46011°
Mean motion
3.63006 °/min
Orbital period
99.17 mins
BSTAR
0.00014237
Loading maneuver chart data...
Computing Atmospheric mass density...
Loading historical data...
Loading historical data...
Loading historical data...
Loading historical data...
Loading historical data...
Loading historical data...
Loading historical data...

Documentation

Showing up to 5 results
|